Location: Oshawa
(43.9000°N, 78.8670°W)
Time: 12:38:03
(UTC-04:00)

ITAMSAT 1 - Visible Passes

Search period start: 23 May 2018 00:00
Search period end: 02 June 2018 00:00
Orbit: 783 x 797 km, 98.9° (Epoch: 22 May)

Date Brightness Start Highest point End Pass type
(mag) Time Alt. Az. Time Alt. Az. Time Alt. Az.
23 May 9.7 04:35:55 10° NE 04:40:12 26° E 04:44:29 10° SSE visible
24 May 10.3 04:07:52 10° ENE 04:10:29 14° E 04:13:06 10° ESE visible
26 May 9.4 04:46:56 10° NNE 04:51:35 32° E 04:56:12 10° SSE visible
27 May 10.2 04:18:29 10° NE 04:21:55 18° E 04:25:20 10° SE visible
29 May 9.0 04:58:02 10° NNE 05:02:56 40° E 05:07:48 10° SSE visible
30 May 9.9 04:29:19 10° NE 04:33:20 22° E 04:37:18 10° SE visible
31 May 10.4 04:01:49 10° ENE 04:03:34 12° E 04:05:19 10° ESE visible
